[[{"header":{"parameterUnit":"m.s-1","parameterCategory":1,"la1":30.2991,"la2":30.254,"lo1":-89.0895,"lo2":-89.0444,"dy":0.0017,"dx":0.0017,"nx":28,"ny":28,"refTime":"2025-09-03T09:00:00:Z","depth":0,"parameterNumber":2,"parameterNumberName":"U-component_of_WINDS"},"data":[0,0,0,0,0,0,0,0,0,0,0,0,0,0,0,0,0,0,0,0,0,0,0,0,0,0,0,0,0,0,0,0,0,0,0,0,0,0,0,0,0,0,0,0,0,0,0,0,0,0,0,0,0,0,0,0,0,0,0.0113,0.0113,0,0.0072,0.0072,0.0071,0.0061,0.0061,0.0061,0.0062,0.0018,0.0016,0.0015,0,0,0,0,0,0,0,0,0,0,0,0,0,0.0183,0.0182,0.0113,0.0113,0.0112,0.0072,0.0072,0.0071,0.0061,0.0061,0.0062,0.0062,0.0018,0.0016,0.0015,0,0,0,0,0,0,0,0,0,0,0,0,0,0.0148,0.0181,0.0113,0.0102,0.0101,0.0072,0.0071,0.0071,0.0061,0.0061,0.0062,0.0062,0.0019,0.0016,0.0014,-0.0007,0,0,0.0008,0.0007,0,0,0,0,0,0,0,0,0.015,0.0146,0.0105,0.0103,0.0102,0.0072,0.008,0.0045,0.0061,0.0076,0.0062,0.0062,0.0035,0.0032,0.0023,-0.0009,-0.0011,0.0008,0.0006,0.0005,0.0005,0,0,0,0,0,0,0,0.0153,0.0147,0.0097,0.0104,0.0102,0.0099,0.0095,0.0073,0.0054,0.0075,0.0074,0.0069,0.0034,0.0025,0.0022,-0.0012,0.0008,0.0006,0.0004,0.0004,-0.0063,-0.0063,0,0,0,0,0,0,0.0157,0.0149,0.0098,0.0096,0.0127,0.0098,0.0093,0.0081,0.0054,0.005,0.0069,0.0069,0.0029,0.0024,0.002,-0.0006,0.0005,0.0003,0.0002,-0.0062,-0.0063,-0.0063,0,0,0,0,0,0,0.0159,0.0153,0.01,0.0122,0.0115,0.0096,0.0083,0.008,0.0071,0.005,0.0046,0.0063,0.0029,0.0023,0.0,-0.0008,0.0002,0.0,-0.0062,-0.0063,-0.0063,-0.006,0,0,0,0,0,0,0.0161,0.0153,0.0145,0.0122,0.0114,0.008,0.0083,0.0079,0.0067,0.0067,0.0043,0.0039,0.0029,0.0003,-0.0002,-0.0011,-0.0001,-0.0061,-0.0062,-0.0063,-0.006,-0.0061,-0.0062,0,0,0,0,0,0.0163,0.0147,0.0144,0.0138,0.0104,0.008,0.0075,0.0064,0.0067,0.0058,0.0045,0.004,-0.0006,0.0001,-0.0005,-0.0015,-0.0061,-0.0062,-0.0063,-0.0059,-0.0061,-0.0062,0,0,0,0,0,0,0.0168,0.0143,0.0141,0.0117,0.0101,0.0078,0.0067,0.0063,0.0045,0.0045,0.0031,0.0026,0.0004,-0.0008,0.0001,-0.0036,-0.0033,-0.0036,-0.0029,-0.003,-0.0031,-0.0028,-0.0003,0,0,0,0,0,0.0166,0.015,0.0129,0.011,0.0102,0.0086,0.0075,0.0068,0.0051,0.0044,0.0028,0.0011,-0.0007,-0.0019,-0.0037,-0.0061,-0.0066,-0.007,-0.0071,-0.0072,-0.0074,-0.0087,-0.0089,-0.0067,-0.0067,-0.0067,0,0,0.0162,0.0147,0.0137,0.011,0.0097,0.008,0.008,0.0062,0.0049,0.0041,0.0018,0.0006,-0.0014,-0.0037,-0.0048,-0.0047,-0.0081,-0.0073,-0.0074,-0.0076,-0.0089,-0.0091,-0.0093,-0.0068,-0.0068,-0.0067,0,0,0.0146,0.0133,0.0116,0.0103,0.0083,0.0073,0.0069,0.0048,0.004,0.0018,0.0011,-0.0004,-0.0036,-0.0049,-0.0061,-0.008,-0.0084,-0.0085,-0.0091,-0.0103,-0.0105,-0.0107,-0.0114,-0.0116,-0.0087,-0.0087,-0.0087,0,0.0143,0.0118,0.0107,0.009,0.0078,0.0071,0.0054,0.0041,0.0017,0.0009,0.0011,-0.0028,-0.0042,-0.0069,-0.0073,-0.0082,-0.0087,-0.0083,-0.0104,-0.0106,-0.0107,-0.0114,-0.0117,-0.0087,-0.0087,-0.0087,-0.0087,0,0.0115,0.0098,0.0086,0.0064,0.0051,0.0033,0.002,0.0009,0.0003,-0.0007,-0.003,-0.0046,-0.0068,-0.0074,-0.0081,-0.0102,-0.01,-0.0101,-0.0098,-0.0109,-0.0116,-0.0119,-0.0087,-0.0087,-0.0087,-0.0087,0,0,0.0099,0.0073,0.0068,0.0058,0.0037,0.0023,0.0006,-0.0014,-0.0024,-0.004,-0.0055,-0.0081,-0.0081,-0.0093,-0.0101,-0.0112,-0.0126,-0.0111,-0.0112,-0.0114,-0.015,-0.015,-0.0153,-0.0128,-0.0129,-0.0129,-0.0148,0,0.008,0.0049,0.004,0.0013,-0.0003,-0.0009,-0.0024,-0.0038,-0.0048,-0.0063,-0.0074,-0.0092,-0.0091,-0.0098,-0.0109,-0.0122,-0.0133,-0.012,-0.0143,-0.0144,-0.0139,-0.0156,-0.0157,-0.0174,-0.0151,-0.0151,-0.0152,0,0.0053,0.0038,0.001,-0.0008,-0.0015,-0.0029,-0.0047,-0.0062,-0.0078,-0.0084,-0.0097,-0.0103,-0.0122,-0.0117,-0.0142,-0.0133,-0.0143,-0.015,-0.0151,-0.0155,-0.0149,-0.0161,-0.018,-0.0183,-0.0156,-0.0156,-0.0155,0,0.0044,0.0016,-0.0004,-0.0013,-0.0034,-0.0043,-0.0053,-0.0069,-0.008,-0.0096,-0.0103,-0.0121,-0.0131,-0.0145,-0.0156,-0.0151,-0.018,-0.0177,-0.0187,-0.0186,-0.0194,-0.0193,-0.0215,-0.0198,-0.0198,-0.0198,-0.0198,0,0.0023,0.0006,-0.0009,-0.0021,-0.004,-0.005,-0.0068,-0.0078,-0.0092,-0.0106,-0.0112,-0.0126,-0.0139,-0.0154,-0.0162,-0.0182,-0.0187,-0.0192,-0.0195,-0.0193,-0.0192,-0.02,-0.0199,-0.0199,-0.0199,-0.0199,-0.0198,0,0.0008,-0.0002,-0.0024,-0.0042,-0.0047,-0.006,-0.0076,-0.0088,-0.0097,-0.0115,-0.012,-0.0134,-0.0152,-0.0164,-0.0187,-0.0193,-0.0215,-0.0216,-0.0209,-0.021,-0.022,-0.0219,-0.0249,-0.0253,-0.0232,-0.0232,-0.0233,0,-0.0005,-0.0018,-0.0037,-0.0046,-0.0056,-0.0071,-0.0082,-0.0092,-0.0103,-0.0121,-0.0132,-0.015,-0.0165,-0.0193,-0.0206,-0.0224,-0.0226,-0.0235,-0.0229,-0.0226,-0.0227,-0.0227,-0.0228,-0.0237,-0.0237,-0.0237,-0.0237,0,-0.0028,-0.0032,-0.0047,-0.0063,-0.0076,-0.0089,-0.0103,-0.0111,-0.0123,-0.0135,-0.0153,-0.0164,-0.0187,-0.0205,-0.0223,-0.0233,-0.0238,-0.0239,-0.0242,-0.0241,-0.0236,-0.0239,-0.0213,-0.0238,-0.0238,-0.0238,-0.0238,-0.0238,-0.0043,-0.0054,-0.0069,-0.0085,-0.0096,-0.0108,-0.012,-0.013,-0.0145,-0.0164,-0.0168,-0.0187,-0.0202,-0.0227,-0.0237,-0.0252,-0.0251,-0.0256,-0.0258,-0.0259,-0.0259,-0.0232,-0.0256,-0.0256,-0.0256,-0.0256,-0.0255,0,-0.0066,-0.0075,-0.009,-0.0108,-0.0121,-0.0122,-0.0137,-0.0147,-0.0164,-0.0177,-0.0191,-0.0211,-0.0228,-0.0242,-0.0259,-0.0268,-0.0271,-0.0273,-0.0273,-0.0275,-0.0259,-0.0254,-0.0271,-0.0271,-0.0271,-0.0271,-0.0271,-0.0271,-0.008,-0.0099,-0.0105,-0.0129,-0.0138,-0.0156,-0.0165,-0.0176,-0.0186,-0.0208,-0.0222,-0.023,-0.0243,-0.0262,-0.0277,-0.0281,-0.0287,-0.0289,-0.0293,-0.0278,-0.0276,-0.0275,-0.0271,-0.029,-0.029,-0.0308,-0.0308,-0.0308]},{"header":{"parameterUnit":"m.s-1","parameterCategory":1,"la1":30.2991,"la2":30.254,"lo1":-89.0895,"lo2":-89.0444,"dy":0.0017,"dx":0.0017,"nx":28,"ny":28,"refTime":"2025-09-03T09:00:00:Z","depth":0,"parameterNumber":3,"parameterNumberName":"V-component_of_WINDS"},"data":[0,0,0,0,0,0,0,0,0,0,0,0,0,0,0,0,0,0,0,0,0,0,0,0,0,0,0,0,0,0,0,0,0,0,0,0,0,0,0,0,0,0,0,0,0,0,0,0,0,0,0,0,0,0,0,0,0,0,-2.7151,-2.7152,0,-2.7213,-2.7214,-2.7214,-2.7209,-2.7208,-2.7207,-2.7206,-2.7267,-2.7269,-2.7271,0,0,0,0,0,0,0,0,0,0,0,0,0,-2.7026,-2.7029,-2.7151,-2.7152,-2.7153,-2.7213,-2.7214,-2.7215,-2.7209,-2.7208,-2.7207,-2.7206,-2.7266,-2.7269,-2.7272,0,0,0,0,0,0,0,0,0,0,0,0,0,-2.7083,-2.7029,-2.7151,-2.7157,-2.7159,-2.7213,-2.7214,-2.7215,-2.7209,-2.7208,-2.7207,-2.7205,-2.7265,-2.7268,-2.7272,-2.7323,0,0,-2.7283,-2.7285,0,0,0,0,0,0,0,0,-2.708,-2.7088,-2.7156,-2.7157,-2.7159,-2.7202,-2.7192,-2.7251,-2.721,-2.719,-2.7206,-2.7205,-2.7246,-2.7251,-2.7266,-2.7326,-2.7328,-2.7284,-2.7286,-2.7288,-2.7289,0,0,0,0,0,0,0,-2.7076,-2.7085,-2.7176,-2.7157,-2.7158,-2.7156,-2.7163,-2.7203,-2.7225,-2.7192,-2.7191,-2.7199,-2.7246,-2.7262,-2.7267,-2.7329,-2.7284,-2.7287,-2.7289,-2.7291,-2.7433,-2.7435,0,0,0,0,0,0,-2.7071,-2.7082,-2.7174,-2.7177,-2.7115,-2.716,-2.7167,-2.7189,-2.7225,-2.7229,-2.72,-2.7198,-2.7256,-2.7263,-2.7269,-2.733,-2.7288,-2.7291,-2.7293,-2.7432,-2.7434,-2.7435,0,0,0,0,0,0,-2.7069,-2.7079,-2.7171,-2.713,-2.7141,-2.7163,-2.7188,-2.7191,-2.7207,-2.7231,-2.7235,-2.7212,-2.7256,-2.7264,-2.731,-2.7332,-2.7293,-2.7296,-2.743,-2.7432,-2.7435,-2.7453,0,0,0,0,0,0,-2.7065,-2.7079,-2.7099,-2.713,-2.7144,-2.7211,-2.719,-2.7193,-2.7214,-2.7212,-2.7243,-2.7247,-2.7255,-2.7304,-2.7313,-2.7337,-2.7299,-2.7428,-2.7431,-2.7434,-2.7451,-2.7456,-2.746,0,0,0,0,0,-2.7061,-2.7101,-2.71,-2.7111,-2.7169,-2.7213,-2.722,-2.7229,-2.7216,-2.7235,-2.7251,-2.7246,-2.7329,-2.7309,-2.7319,-2.7344,-2.7427,-2.743,-2.7434,-2.7448,-2.7455,-2.746,0,0,0,0,0,0,-2.7071,-2.7105,-2.7104,-2.7156,-2.7182,-2.7212,-2.7237,-2.7236,-2.7265,-2.7262,-2.7272,-2.7279,-2.7325,-2.7339,-2.7316,-2.7395,-2.7376,-2.7381,-2.7383,-2.739,-2.7394,-2.7389,-2.7302,0,0,0,0,0,-2.7079,-2.7112,-2.7141,-2.7184,-2.7197,-2.7215,-2.7234,-2.7239,-2.7265,-2.7276,-2.7295,-2.7319,-2.7351,-2.7371,-2.7402,-2.7453,-2.7459,-2.7475,-2.748,-2.7484,-2.7488,-2.7515,-2.7523,-2.7447,-2.7447,-2.7447,0,0,-2.7097,-2.712,-2.714,-2.7186,-2.7207,-2.724,-2.7224,-2.726,-2.7284,-2.7281,-2.7325,-2.734,-2.7368,-2.7417,-2.7439,-2.743,-2.7511,-2.7489,-2.7491,-2.7494,-2.752,-2.7527,-2.7533,-2.7449,-2.7449,-2.7449,0,0,-2.7145,-2.7166,-2.7204,-2.7225,-2.7256,-2.7268,-2.7277,-2.7308,-2.7317,-2.7362,-2.7361,-2.7389,-2.7444,-2.7464,-2.7481,-2.7537,-2.7533,-2.7547,-2.7572,-2.7598,-2.7604,-2.7609,-2.7628,-2.7635,-2.7552,-2.7552,-2.7552,0,-2.7162,-2.7213,-2.7224,-2.726,-2.728,-2.728,-2.7318,-2.7337,-2.7376,-2.7389,-2.7379,-2.7447,-2.7467,-2.7519,-2.7533,-2.7548,-2.7557,-2.7543,-2.7603,-2.7608,-2.7613,-2.7631,-2.7638,-2.7553,-2.7553,-2.7553,-2.7553,0,-2.7232,-2.7267,-2.7294,-2.7332,-2.7356,-2.7392,-2.7408,-2.743,-2.7433,-2.7446,-2.7491,-2.7514,-2.7549,-2.7562,-2.7565,-2.7615,-2.7608,-2.7601,-2.7581,-2.7621,-2.7638,-2.7645,-2.7555,-2.7554,-2.7554,-2.7554,0,0,-2.7287,-2.7331,-2.7341,-2.7358,-2.7393,-2.7419,-2.7456,-2.7491,-2.7509,-2.7536,-2.7566,-2.7612,-2.7605,-2.7625,-2.7631,-2.7654,-2.7695,-2.7643,-2.7644,-2.7651,-2.775,-2.7755,-2.7763,-2.7694,-2.7695,-2.7696,-2.7747,0,-2.7337,-2.7403,-2.7414,-2.747,-2.7502,-2.7503,-2.7535,-2.7559,-2.7572,-2.76,-2.7614,-2.7646,-2.7635,-2.7647,-2.767,-2.7685,-2.7715,-2.7682,-2.772,-2.7722,-2.7711,-2.7772,-2.7777,-2.7823,-2.7754,-2.7755,-2.7756,0,-2.7405,-2.7434,-2.7494,-2.7524,-2.7538,-2.7566,-2.7599,-2.7627,-2.7654,-2.7661,-2.7684,-2.7687,-2.7724,-2.7704,-2.7754,-2.7732,-2.7748,-2.7758,-2.776,-2.7762,-2.774,-2.7774,-2.7839,-2.7845,-2.7767,-2.7766,-2.7765,0,-2.7437,-2.7492,-2.7535,-2.7549,-2.7586,-2.7606,-2.7622,-2.7648,-2.7668,-2.7696,-2.7709,-2.7741,-2.7758,-2.7782,-2.7794,-2.7779,-2.7843,-2.7824,-2.7849,-2.7848,-2.7861,-2.7859,-2.7927,-2.7874,-2.7874,-2.7874,-2.7874,0,-2.7491,-2.7527,-2.7549,-2.7575,-2.7616,-2.7628,-2.7668,-2.7683,-2.7706,-2.7735,-2.7738,-2.7764,-2.7778,-2.7807,-2.7816,-2.7855,-2.7863,-2.787,-2.7871,-2.7868,-2.7867,-2.7878,-2.7874,-2.7876,-2.7876,-2.7875,-2.7875,0,-2.7533,-2.7549,-2.7596,-2.7627,-2.7635,-2.7664,-2.769,-2.7715,-2.7728,-2.7764,-2.7773,-2.7794,-2.7827,-2.7841,-2.7882,-2.7888,-2.7933,-2.7933,-2.7924,-2.7924,-2.7947,-2.7944,-2.8023,-2.8033,-2.7975,-2.7975,-2.7976,0,-2.7565,-2.7593,-2.7627,-2.7647,-2.7664,-2.7696,-2.7716,-2.7729,-2.7751,-2.7784,-2.7804,-2.7838,-2.7866,-2.7919,-2.7937,-2.7968,-2.7968,-2.7994,-2.7973,-2.7969,-2.7967,-2.7964,-2.7966,-2.7997,-2.7997,-2.7998,-2.7998,0,-2.7621,-2.7628,-2.7658,-2.7691,-2.7715,-2.7742,-2.7768,-2.7783,-2.7801,-2.7824,-2.7859,-2.788,-2.7923,-2.7956,-2.7988,-2.8004,-2.8003,-2.8005,-2.8012,-2.8008,-2.8001,-2.8004,-2.7933,-2.8003,-2.8002,-2.8002,-2.8002,-2.8001,-2.7658,-2.7682,-2.771,-2.7743,-2.7764,-2.7789,-2.7813,-2.783,-2.786,-2.7895,-2.7902,-2.7938,-2.7964,-2.8008,-2.8025,-2.8053,-2.8047,-2.8057,-2.8059,-2.8061,-2.8062,-2.7998,-2.8059,-2.8059,-2.8059,-2.8059,-2.8059,0,-2.7712,-2.773,-2.7761,-2.7797,-2.7823,-2.7822,-2.7851,-2.7872,-2.7905,-2.793,-2.7957,-2.7996,-2.8029,-2.805,-2.8082,-2.81,-2.8101,-2.8108,-2.8106,-2.8109,-2.8067,-2.8057,-2.8107,-2.8107,-2.8107,-2.8107,-2.8107,-2.8107,-2.7743,-2.7784,-2.7794,-2.7846,-2.7864,-2.79,-2.7916,-2.7938,-2.7958,-2.8002,-2.8029,-2.8043,-2.8066,-2.8101,-2.813,-2.8135,-2.8146,-2.8153,-2.8158,-2.8117,-2.8112,-2.8107,-2.8098,-2.8156,-2.8156,-2.8198,-2.8198,-2.8198]}]]